DW6399 Weather Reports


time (UTC)temp
C
wind
direction
speed
KPH
gust
KPH
rain 1hr
cm
rain 24hr
cm
rain mn
cm
humidity
%
barometer
mb
20260507083603 10 239 6.4 16.1 0.00 0.00 0.00 44 1012.8
20260507082724 10 186 8.0 24.1 0.00 0.00 0.00 44 1013.0
20260507081803 10 188 9.7 24.1 0.00 0.00 0.00 48 1012.9
20260507080903 9 207 6.4 19.3 0.00 0.00 0.00 50 1013.0
20260507080004 9 203 4.8 14.5 0.00 0.00 0.00 51 1013.0
20260507075403 9 198 6.4 16.1 0.00 0.00 0.00 52 1013.0
20260507074503 8 213 6.4 19.3 0.00 0.00 0.00 54 1012.9
20260507073603 8 225 6.4 17.7 0.00 0.00 0.00 54 1012.9
20260507072703 8 164 8.0 17.7 0.00 0.00 0.00 57 1012.9
20260507071803 8 164 9.7 19.3 0.00 0.00 0.00 62 1012.9
20260507070903 7 170 8.0 14.5 0.00 0.00 0.00 63 1012.9
20260507070024 7 168 9.7 17.7 0.00 0.00 0.00 65 1012.9
20260507065403 7 174 8.0 17.7 0.00 0.00 0.00 65 1012.9
20260507064503 7 166 8.0 16.1 0.00 0.00 0.00 66 1012.9
20260507063624 7 156 9.7 16.1 0.00 0.00 0.00 67 1012.8
20260507062724 6 162 8.0 14.5 0.00 0.00 0.00 69 1012.9
20260507061803 6 166 4.8 12.9 0.00 0.00 0.00 72 1012.9
20260507060925 5 248 4.8 11.3 0.00 0.00 0.00 70 1012.8
20260507060003 5 228 3.2 12.9 0.00 0.00 0.00 71 1012.8
20260507055403 5 203 3.2 12.9 0.00 0.00 0.00 73 1012.8
20260507054503 5 203 4.8 14.5 0.00 0.00 0.00 75 1012.7
20260507053624 4 210 3.2 9.7 0.00 0.00 0.00 76 1012.8
20260507052703 4 200 3.2 9.7 0.00 0.00 0.00 77 1012.8
20260507051803 4 197 3.2 11.3 0.00 0.00 0.00 77 1012.8
20260507050903 4 202 3.2 11.3 0.00 0.00 0.00 78 1012.6
20260507050003 4 177 4.8 9.7 0.00 0.00 0.00 79 1012.2
20260507045403 3 186 6.4 11.3 0.00 0.00 0.00 80 1012.8
20260507044503 3 185 3.2 11.3 0.00 0.00 0.00 84 1012.3
20260507043603 2 157 3.2 8.0 0.00 0.00 0.00 85 1012.3
20260507042703 1 171 3.2 6.4 0.00 0.00 0.00 88 1012.7
20260507041824 1 179 1.6 6.4 0.00 0.00 0.00 91 1012.3
20260507040924 0 175 0.0 1.6 0.00 0.00 0.00 94 1012.0
20260507040003 -1 0 0.0 0.0 0.00 0.00 0.00 93 1011.5
20260507035403 -2 176 0.0 3.2 0.00 0.00 0.00 93 1010.3
20260507034503 -2 176 1.6 4.8 0.00 0.00 0.00 92 1013.3
20260507033624 -2 176 1.6 4.8 0.00 0.00 0.00 93 1012.5
20260507032724 -2 176 4.8 6.4 0.00 0.00 0.00 94 1012.5
20260507031803 -3 176 3.2 6.4 0.00 0.00 0.00 93 1012.3
20260507030903 -3 0 0.0 0.0 0.00 0.00 0.00 93 1012.3
20260507030003 -3 176 0.0 3.2 0.00 0.00 0.00 93 1012.2
20260507025424 -3 176 0.0 3.2 0.00 0.00 0.00 92 1012.3
20260507024503 -3 0 0.0 0.0 0.00 0.00 0.00 92 1012.3
20260507023624 -3 176 0.0 1.6 0.00 0.00 0.00 92 1012.1
20260507022703 -3 0 0.0 0.0 0.00 0.00 0.00 92 1012.1
20260507021803 -3 0 0.0 0.0 0.00 0.00 0.00 92 1012.1
20260507020903 -3 0 0.0 0.0 0.00 0.00 0.00 93 1012.1
20260507020024 -3 0 0.0 0.0 0.00 0.00 0.00 92 1012.1
20260507015403 -3 0 0.0 0.0 0.00 0.00 0.00 92 1012.1
20260507014503 -3 0 0.0 0.0 0.00 0.00 0.00 92 1012.1
20260507013603 -3 0 0.0 0.0 0.00 0.00 0.00 92 1012.1
20260507012703 -3 176 0.0 3.2 0.00 0.00 0.00 92 1012.0
20260507011803 -3 0 0.0 0.0 0.00 0.00 0.00 92 1012.0
20260507010903 -3 0 0.0 0.0 0.00 0.00 0.00 92 1012.1
20260507010004 -3 176 0.0 1.6 0.00 0.00 0.00 92 1012.1
20260507005403 -3 176 0.0 4.8 0.00 0.00 0.00 92 1012.0
20260507004503 -3 0 0.0 0.0 0.00 0.00 0.00 92 1011.9
20260507003603 -2 0 0.0 0.0 0.00 0.00 0.00 92 1011.7
20260507002724 -2 0 0.0 0.0 0.00 0.00 0.00 92 1011.7
20260507001803 -2 0 0.0 0.0 0.00 0.00 0.00 92 1011.7
20260507000903 -3 240 0.0 0.0 0.00 0.00 0.00 92 1011.7
20260507000004 -3 240 0.0 1.6 0.00 0.00 0.00 92 1011.6
20260506235403 -3 240 0.0 1.6 0.00 0.00 0.00 92 1011.6
20260506234524 -3 240 0.0 3.2 0.00 0.00 0.00 91 1011.7
20260506233624 -2 240 0.0 1.6 0.00 0.00 0.00 92 1011.6
20260506232724 -2 240 0.0 3.2 0.00 0.00 0.00 92 1011.5
20260506231803 -2 240 0.0 3.2 0.00 0.00 0.00 92 1011.5
20260506230903 -2 243 0.0 4.8 0.00 0.00 0.00 92 1011.5
20260506230003 -2 0 0.0 0.0 0.00 0.00 0.00 92 1011.5
20260506225403 -2 0 0.0 0.0 0.00 0.00 0.00 92 1011.5
20260506224503 -2 0 0.0 0.0 0.00 0.00 0.00 92 1011.4
20260506223603 -2 331 0.0 1.6 0.00 0.00 0.00 92 1011.3
20260506222703 -2 331 0.0 3.2 0.00 0.00 0.00 92 1011.2
20260506221803 -2 331 0.0 3.2 0.00 0.00 0.00 92 1011.1
20260506220903 -2 0 0.0 0.0 0.00 0.00 0.00 92 1011.2
20260506220024 -2 0 0.0 0.0 0.00 0.00 0.00 92 1011.1
20260506215403 -2 0 0.0 0.0 0.00 0.00 0.00 91 1011.0
20260506214503 -1 331 0.0 1.6 0.00 0.00 0.00 91 1011.0
20260506213603 -1 331 0.0 3.2 0.00 0.00 0.00 92 1010.9
20260506212703 -1 331 0.0 3.2 0.00 0.00 0.00 92 1011.0
20260506211803 -2 331 0.0 3.2 0.00 0.00 0.00 91 1010.9
20260506210903 -2 331 0.0 3.2 0.00 0.00 0.00 91 1010.9
20260506210004 -2 0 0.0 0.0 0.00 0.00 0.00 90 1010.8
20260506205403 -1 0 0.0 0.0 0.00 0.00 0.00 91 1010.8
20260506204503 -2 0 0.0 0.0 0.00 0.00 0.00 91 1010.8
20260506203603 -2 331 0.0 3.2 0.00 0.00 0.00 90 1010.8
20260506202703 -2 0 0.0 0.0 0.00 0.00 0.00 90 1010.9
20260506201803 -1 331 0.0 1.6 0.00 0.00 0.00 91 1010.8
20260506200924 -2 331 0.0 3.2 0.00 0.00 0.00 89 1010.7
20260506200003 -2 331 0.0 1.6 0.00 0.00 0.00 89 1010.7
20260506195403 -2 331 0.0 1.6 0.00 0.00 0.00 88 1010.7
20260506194503 -1 331 0.0 1.6 0.00 0.00 0.00 88 1010.7
20260506193603 -1 331 0.0 1.6 0.00 0.00 0.00 88 1010.7
20260506192724 -1 331 0.0 1.6 0.00 0.00 0.00 88 1010.7
20260506191803 -1 0 0.0 0.0 0.00 0.00 0.00 87 1010.7
20260506190903 0 0 0.0 0.0 0.00 0.00 0.00 85 1010.6
20260506190006 0 0 0.0 0.0 0.00 0.00 0.00 84 1010.5
20260506185426 0 0 0.0 0.0 0.00 0.00 0.00 84 1010.4
20260506184505 1 0 0.0 0.0 0.00 0.00 0.00 82 1010.4
20260506183605 1 0 0.0 0.0 0.00 0.00 0.00 81 1010.3
20260506182705 2 0 0.0 0.0 0.00 0.00 0.00 78 1010.2
20260506181804 3 331 3.2 8.0 0.00 0.00 0.00 78 1010.0
20260506180905 3 331 3.2 4.8 0.00 0.00 0.00 78 1009.9
20260506180006 3 334 6.4 9.7 0.00 0.00 0.00 78 1009.9
20260506175405 3 331 6.4 9.7 0.00 0.00 0.00 77 1009.8
20260506174526 4 330 4.8 8.0 0.00 0.00 0.00 76 1009.8
20260506173605 4 306 6.4 12.9 0.00 0.00 0.00 76 1009.8
20260506172705 4 317 6.4 12.9 0.00 0.00 0.00 77 1009.6
20260506171805 4 318 9.7 19.3 0.00 0.00 0.00 76 1009.6
20260506170904 4 306 9.7 17.7 0.00 0.00 0.00 77 1009.5
20260506170026 4 306 11.3 17.7 0.00 0.00 0.00 77 1009.4
20260506165405 3 317 9.7 16.1 0.00 0.00 0.00 77 1009.4
20260506164505 4 299 6.4 14.5 0.00 0.00 0.00 78 1009.3
20260506163604 3 299 9.7 17.7 0.00 0.00 0.00 78 1009.2
20260506162705 3 299 11.3 17.7 0.00 0.00 0.00 77 1009.3
20260506161805 4 307 11.3 19.3 0.00 0.00 0.00 77 1009.2
20260506160926 4 295 12.9 22.5 0.00 0.00 0.00 76 1009.1
20260506160005 4 300 14.5 22.5 0.00 0.00 0.00 77 1009.0
20260506155405 4 303 12.9 20.9 0.00 0.00 0.00 77 1008.9
20260506154504 4 302 11.3 19.3 0.00 0.00 0.00 77 1008.9
20260506153605 4 295 12.9 19.3 0.00 0.00 0.00 77 1008.8
20260506152705 4 286 12.9 24.1 0.00 0.00 0.00 77 1008.7
20260506151805 4 295 12.9 22.5 0.00 0.00 0.00 77 1008.6
20260506150905 4 297 12.9 20.9 0.00 0.00 0.00 77 1008.7
20260506150026 4 302 14.5 24.1 0.00 0.00 0.00 77 1008.6
20260506145404 4 301 16.1 25.7 0.00 0.00 0.00 77 1008.6
20260506144504 4 298 16.1 27.4 0.00 0.00 0.00 76 1008.5
20260506143605 5 277 14.5 27.4 0.00 0.00 0.00 76 1008.4
20260506142704 5 280 16.1 29.0 0.00 0.00 0.00 75 1008.4
20260506141804 4 273 16.1 35.4 0.00 0.00 0.00 75 1008.3
20260506140904 4 284 19.3 37.0 0.00 0.00 0.00 75 1008.2
20260506140026 4 282 19.3 37.0 0.00 0.00 0.00 75 1008.2
20260506135405 4 286 17.7 37.0 0.00 0.00 0.00 74 1008.2
20260506134504 4 288 14.5 33.8 0.00 0.00 0.00 74 1007.9
20260506133626 4 290 19.3 32.2 0.00 0.00 0.00 76 1007.9
20260506132704 4 291 17.7 32.2 0.00 0.00 0.00 75 1007.6
20260506131805 5 292 16.1 32.2 0.00 0.00 0.00 75 1007.6
20260506130904 5 281 14.5 25.7 0.00 0.00 0.00 77 1007.5
20260506130005 5 296 14.5 27.4 0.00 0.00 0.00 77 1007.3
20260506125405 5 296 14.5 25.7 0.00 0.00 0.00 78 1007.3
20260506124504 5 305 16.1 25.7 0.00 0.00 0.00 77 1007.2
20260506123626 5 301 12.9 27.4 0.00 0.00 0.00 77 1007.0
20260506122726 4 300 14.5 22.5 0.00 0.00 0.00 77 1007.0
20260506121804 4 307 11.3 22.5 0.00 0.00 0.00 78 1007.0
20260506120905 3 299 12.9 24.1 0.00 0.00 0.00 77 1006.8
20260506120005 3 300 12.9 20.9 0.00 0.00 0.00 76 1006.7
20260506115404 3 305 12.9 19.3 0.00 0.00 0.00 75 1006.8
20260506114504 3 286 14.5 25.7 0.00 0.00 0.00 72 1006.6
20260506113604 4 275 11.3 24.1 0.00 0.00 0.00 71 1006.5
20260506112705 3 279 12.9 25.7 0.00 0.00 0.00 71 1006.3
20260506111804 3 282 14.5 30.6 0.00 0.00 0.00 72 1006.2
20260506110904 3 276 12.9 24.1 0.00 0.00 0.00 72 1006.1
20260506110005 3 272 12.9 32.2 0.00 0.00 0.00 71 1006.0
20260506105405 3 276 12.9 32.2 0.00 0.00 0.00 71 1005.9
20260506104505 3 273 12.9 27.4 0.00 0.00 0.00 72 1005.8
20260506103604 3 280 16.1 32.2 0.00 0.00 0.00 72 1005.7
20260506102704 4 283 16.1 32.2 0.00 0.00 0.00 71 1005.5
20260506101805 4 285 14.5 29.0 0.00 0.00 0.00 71 1005.4
20260506100905 4 278 16.1 38.6 0.00 0.00 0.00 69 1005.2
20260506100025 5 280 14.5 29.0 0.00 0.00 0.00 69 1005.1
20260506095404 5 274 12.9 29.0 0.00 0.00 0.00 68 1004.9
20260506094504 5 283 16.1 32.2 0.00 0.00 0.00 67 1004.8
20260506093604 5 278 14.5 27.4 0.00 0.00 0.00 64 1004.6
20260506092704 5 273 11.3 25.7 0.00 0.00 0.00 62 1004.4
20260506091805 5 269 11.3 32.2 0.00 0.00 0.00 61 1004.3
20260506090904 6 275 8.0 24.1 0.00 0.00 0.00 58 1004.1
20260506090005 6 256 11.3 30.6 0.00 0.00 0.00 57 1003.9
20260506085425 6 262 12.9 48.3 0.00 0.00 0.00 56 1003.8
20260506084504 6 268 12.9 48.3 0.00 0.00 0.00 56 1003.7